Vancouver, British Columbia

3:08 AM PDT on March 25, 2017 (GMT -0700)
Vancouver International Airport

Weather History for CYVR - September, 2013

Change the Weather History Date:

Monday, September 2, 2013

  Actual Average Record
Temperature  
Mean Temperature 66 °F -  
Max Temperature 71 °F 64 °F 78 °F (1998)
Min Temperature 60 °F 50 °F 48 °F (2000)
Growing Degree Days 16 (Base 50)    
Moisture  
Dew Point 59 °F    
Average Humidity 82    
Maximum Humidity 88    
Minimum Humidity 64    
Precipitation  
Precipitation 0.04 in 0.09 in - ()
Sea Level Pressure  
Sea Level Pressure 29.89 in    
Wind  
Wind Speed 5 mph ()    
Max Wind Speed 12 mph    
Max Gust Speed -    
Visibility 18.6 miles    
Events Rain    
Averages and records for this station are not official NWS values.
T = Trace of Precipitation, MM = Missing Value Source: Averaged Metar Reports

Daily Weather History Graph

Daily Weather History Graph

Search for Another Location

Airport or City:

Trip Planner

Search our weather history database for the weather conditions in past years. The results will help you decide how hot, cold, wet, or windy it might be!

Date:

Astronomy

Sep. 02, 2013 Rise Set
Actual Time 6:30 AM PDT 7:52 PM PDT
Civil Twilight 5:57 AM PDT 8:25 PM PDT
Nautical Twilight 5:17 AM PDT 9:05 PM PDT
Astronomical Twilight 4:34 AM PDT 9:48 PM PDT
Moon 3:44 AM PDT (9/2) 6:15 PM PDT (9/2)
Length of Visible Light 14h 27m
Length of Day
13h 21m
Waning Crescent, 7% of the Moon is Illuminated
Sep 2
Waning Crescent
Sep 5
New
Sep 12
First Quarter
Sep 19
Full
Sep 26
Last Quarter

Hourly Weather History & Observations

Time (PDT) Temp. Dew Point Humidity Pressure Visibility Wind Dir Wind Speed Gust Speed Precip Events Conditions
12:00 AM 64.4 °F 57.2 °F 77% 29.85 in 20.0 mi East 6.9 mph - N/A   Partly Cloudy
1:00 AM 62.6 °F 57.2 °F 82% 29.87 in 15.0 mi ESE 6.9 mph - N/A   Mostly Cloudy
2:00 AM 64.4 °F 57.2 °F 77% 29.88 in 15.0 mi East 4.6 mph - N/A   Mostly Cloudy
3:00 AM 62.6 °F 57.2 °F 82% 29.88 in 15.0 mi East 5.8 mph - N/A   Mostly Cloudy
4:00 AM 62.6 °F 57.2 °F 82% 29.88 in 15.0 mi East 6.9 mph - N/A   Mostly Cloudy
5:00 AM 61 °F 57 °F 81% 29.88 in 15 mi ESE 5.8 mph - -   Scattered Clouds
5:00 AM 60.8 °F 57.2 °F 88% 29.88 in 15.0 mi ESE 8.1 mph - N/A   Mostly Cloudy
5:17 AM 62.6 °F 57.2 °F 82% 29.87 in 15.0 mi East 4.6 mph - N/A Rain Light Rain Showers
5:40 AM 62.6 °F 57.2 °F 82% 29.88 in 15.0 mi SE 4.6 mph - N/A   Overcast
6:00 AM 62.6 °F 57.2 °F 82% 29.88 in 15.0 mi East 4.6 mph - N/A   Overcast
6:20 AM 62.6 °F 57.2 °F 82% 29.89 in 20.0 mi ESE 8.1 mph - N/A Rain Light Rain Showers
7:00 AM 64.4 °F 57.2 °F 77% 29.87 in 20.0 mi ENE 9.2 mph - N/A Rain Light Rain Showers
7:21 AM 62.6 °F 57.2 °F 82% 29.89 in 20.0 mi Variable 2.3 mph - N/A   Mostly Cloudy
8:00 AM 62.6 °F 59.0 °F 88% 29.91 in 20.0 mi East 5.8 mph - N/A Rain Light Rain Showers
8:22 AM 62.6 °F 59.0 °F 88% 29.91 in 20.0 mi NE 3.5 mph - N/A   Mostly Cloudy
9:00 AM 64.4 °F 60.8 °F 88% 29.91 in 20.0 mi SSE 3.5 mph - N/A   Mostly Cloudy
9:11 AM 64.4 °F 59.0 °F 83% 29.91 in 20.0 mi East 4.6 mph - N/A Rain Light Rain Showers
9:44 AM 64.4 °F 60.8 °F 88% 29.91 in 20.0 mi Calm Calm - N/A   Mostly Cloudy
10:00 AM 64.4 °F 60.8 °F 88% 29.91 in 20.0 mi SSW 4.6 mph - N/A   Mostly Cloudy
11:00 AM 66 °F 63 °F 85% 29.91 in 19 mi West 8.1 mph - -   Partly Cloudy
11:00 AM 66.2 °F 62.6 °F 88% 29.90 in 20.0 mi West 8.1 mph - N/A   Mostly Cloudy
12:00 PM 66.2 °F 62.6 °F 88% 29.89 in 20.0 mi WSW 6.9 mph - N/A   Mostly Cloudy
1:00 PM 69.8 °F 62.6 °F 78% 29.89 in 20.0 mi NW 10.4 mph - N/A   Mostly Cloudy
2:00 PM 68.0 °F 62.6 °F 83% 29.89 in 20.0 mi West 11.5 mph - N/A   Mostly Cloudy
3:00 PM 68.0 °F 60.8 °F 78% 29.89 in 20.0 mi West 9.2 mph - N/A   Mostly Cloudy
4:00 PM 68.0 °F 60.8 °F 78% 29.88 in 20.0 mi West 5.8 mph - N/A   Mostly Cloudy
5:00 PM 69.8 °F 59.0 °F 68% 29.88 in 30.0 mi WSW 4.6 mph - N/A   Mostly Cloudy
6:00 PM 71.6 °F 59.0 °F 64% 29.87 in 20.0 mi NW 2.3 mph - N/A   Scattered Clouds
7:00 PM 68.0 °F 60.8 °F 78% 29.87 in 20.0 mi NW 3.5 mph - N/A   Scattered Clouds
8:00 PM 66.2 °F 60.8 °F 83% 29.89 in 20.0 mi SW 5.8 mph - N/A   Mostly Cloudy
9:00 PM 64.4 °F 60.8 °F 88% 29.90 in 20.0 mi NNW 3.5 mph - N/A   Mostly Cloudy
10:00 PM 64.4 °F 60.8 °F 88% 29.92 in 20.0 mi Calm Calm - N/A   Mostly Cloudy
11:00 PM 64.4 °F 60.8 °F 88% 29.93 in 20.0 mi ENE 4.6 mph - N/A   Scattered Clouds